Meath Environmental Platform

Observations for Trim Patrick St

Time AQI Temp °C Hum % Pres Pa CO μg/m³ H₂S μg/m³ NO μg/m³ NO₂ μg/m³ O₃ μg/m³ SO₂ μg/m³ PM1 μg/m³ PM2.5 μg/m³ PM10 μg/m³
Sunday 2 August 2026
16:26 3 24.7 42 68,973 0 9.06 1.21 21.98 69.02 7.03 2.86 8.5 9.35
16:25 3 24.6 43 68,981 0 18.28 1.12 44.85 80.72 8.91 2.86 8.44 9.28
16:24 3 24.5 42 68,961 0 16.69 1.02 39.78 89.3 8.68 3.71 9.24 10.16
16:23 3 24.5 42 68,961 0 16.8 1 43.38 92.38 8.98 3.71 9.24 10.16
16:22 3 24.5 42 68,935 0 13.4 1.03 25.22 70.7 8.13 2.86 7.7 8.48
16:21 3 24.4 42 68,932 0 14.54 1.04 33.22 88.11 8.74 2.86 9.28 10.21
16:20 3 24.4 42 68,928 0 11.17 1.08 18.8 76.93 8.02 2.86 8.51 9.36
16:19 3 24.4 41 68,922 0 8.23 1.06 26.67 69.35 7.71 3.71 9.31 10.25
16:18 3 24.4 42 68,945 0 10.3 1.07 14.7 68.99 8.21 3.71 9.27 10.2
16:17 3 24.3 42 68,943 0 15.85 1.05 51.2 76.91 8.31 2.86 7.7 8.47
16:16 3 24.3 42 68,973 0 18.18 1.03 41.6 70.57 8.9 2.86 8.49 9.33
16:15 3 24.3 42 68,953 0 19.46 0.97 36.69 80.29 9.09 2.86 8.46 9.31
16:14 3 24.3 42 68,959 0 22.4 1 57.32 107.88 9.4 3.71 9.27 10.19
16:13 3 24.3 41 68,963 0 12 0.98 33.37 73.31 7.94 2.86 7.75 8.53
16:12 3 24.4 41 68,941 0 14.3 0.98 25.54 82.66 8.81 2.86 8.53 9.38
16:11 3 24.4 41 68,937 0 13.96 0.98 26.33 73.38 8.41 2.86 8.52 9.37
16:10 3 24.4 41 68,935 0 17.99 1.07 42.39 78.29 9.02 3.71 10.09 11.1
16:09 3 24.4 41 68,930 0 18.18 1.04 40.83 72.13 8.86 2.86 8.55 9.4
16:08 3 24.4 41 68,957 0 20.25 1.04 51.67 91.28 9.41 2.86 9.34 10.28
16:07 3 24.5 41 68,959 0 18.55 1.03 30.52 110.28 10.53 2 8.57 9.42